Time,TemperatureF,DewpointF,PressureIn,WindDirection,WindDirectionDegrees,WindSpeedMPH,WindSpeedGustMPH,Humidity,HourlyPrecipIn,Conditions,Clouds,dailyrainin,SoftwareType,DateUTC
2013-08-29 00:00:00,68.9,68.0,30.09,East,90,0.0,0.0,97,0.00,,SKC,0.00,VWS V14.01,2013-08-29 05:00:00,
2013-08-29 00:20:00,68.9,68.0,30.09,East,90,0.0,0.0,97,0.00,,SKC,0.00,VWS V14.01,2013-08-29 05:20:00,
2013-08-29 00:40:00,68.7,67.8,30.09,East,90,0.0,0.0,97,0.00,,SKC,0.00,VWS V14.01,2013-08-29 05:40:00,
2013-08-29 01:00:00,68.5,68.0,30.09,East,90,0.0,0.0,98,0.00,,SKC,0.00,VWS V14.01,2013-08-29 06:00:00,
2013-08-29 01:20:00,68.5,68.0,30.09,East,90,0.0,0.0,98,0.00,,SKC,0.00,VWS V14.01,2013-08-29 06:20:00,
2013-08-29 01:40:00,68.0,67.4,30.09,East,90,0.0,0.0,98,0.00,,SKC,0.00,VWS V14.01,2013-08-29 06:40:00,
2013-08-29 02:00:00,67.5,66.9,30.09,East,90,0.0,0.0,98,0.00,,SKC,0.00,VWS V14.01,2013-08-29 07:00:00,
2013-08-29 02:19:00,66.9,66.3,30.09,East,90,0.0,0.0,98,0.00,,SKC,0.00,VWS V14.01,2013-08-29 07:19:00,
2013-08-29 02:39:00,66.9,66.3,30.09,East,90,0.0,0.0,98,0.00,,SKC,0.00,VWS V14.01,2013-08-29 07:39:00,
2013-08-29 03:00:00,66.9,66.3,30.09,East,90,0.0,0.0,98,0.00,,SKC,0.00,VWS V14.01,2013-08-29 08:00:00,
2013-08-29 03:19:00,66.7,66.2,30.06,NE,45,0.0,0.0,98,0.00,,SKC,0.00,VWS V14.01,2013-08-29 08:19:00,
2013-08-29 03:39:00,66.6,66.0,30.06,NE,45,0.0,0.0,98,0.00,,SKC,0.00,VWS V14.01,2013-08-29 08:39:00,
2013-08-29 04:00:00,66.0,65.4,30.06,NE,45,0.0,0.0,98,0.00,,SKC,0.00,VWS V14.01,2013-08-29 09:00:00,
2013-08-29 04:19:00,66.2,65.6,30.06,NE,45,0.0,0.0,98,0.00,,SKC,0.00,VWS V14.01,2013-08-29 09:19:00,
2013-08-29 04:39:00,66.2,65.6,30.06,NE,45,0.0,0.0,98,0.00,,SKC,0.00,VWS V14.01,2013-08-29 09:39:00,
2013-08-29 05:00:00,66.4,65.8,30.06,NE,45,0.0,0.0,98,0.00,,SKC,0.00,VWS V14.01,2013-08-29 10:00:00,
2013-08-29 05:19:00,66.2,65.6,30.06,NE,45,0.0,0.0,98,0.00,,SKC,0.00,VWS V14.01,2013-08-29 10:19:00,
2013-08-29 05:39:00,66.2,65.6,30.06,ENE,68,0.0,0.0,98,0.00,,SKC,0.00,VWS V14.01,2013-08-29 10:39:00,
2013-08-29 06:00:00,66.4,65.8,30.06,ENE,68,0.0,0.0,98,0.00,,SKC,0.00,VWS V14.01,2013-08-29 11:00:00,
2013-08-29 06:19:00,66.4,65.8,30.06,ENE,68,0.0,0.0,98,0.00,,SKC,0.00,VWS V14.01,2013-08-29 11:19:00,
2013-08-29 06:39:00,67.1,66.5,30.09,SE,135,0.0,2.3,98,0.00,,SKC,0.00,VWS V14.01,2013-08-29 11:39:00,
2013-08-29 07:00:00,67.5,66.9,30.09,East,90,0.0,4.7,98,0.00,,SKC,0.00,VWS V14.01,2013-08-29 12:00:00,
2013-08-29 07:19:00,67.8,67.2,30.09,East,90,0.0,0.0,98,0.00,,SKC,0.00,VWS V14.01,2013-08-29 12:19:00,
2013-08-29 07:39:00,68.2,67.6,30.09,ENE,68,0.0,0.0,98,0.00,,SKC,0.00,VWS V14.01,2013-08-29 12:39:00,
2013-08-29 08:00:00,69.6,69.0,30.09,East,90,0.0,2.7,98,0.00,,SKC,0.00,VWS V14.01,2013-08-29 13:00:00,
2013-08-29 08:19:00,70.7,70.1,30.06,WNW,292,0.0,5.9,98,0.00,,SKC,0.00,VWS V14.01,2013-08-29 13:19:00,
2013-08-29 08:39:00,71.8,71.2,30.06,ENE,68,1.0,10.6,98,0.00,,SKC,0.00,VWS V14.01,2013-08-29 13:39:00,
2013-08-29 09:00:00,72.9,71.7,30.06,NNW,338,1.0,7.0,96,0.00,,SKC,0.00,VWS V14.01,2013-08-29 14:00:00,
2013-08-29 09:19:00,74.1,72.3,30.09,ENE,68,0.0,5.1,94,0.00,,SKC,0.00,VWS V14.01,2013-08-29 14:19:00,
2013-08-29 09:39:00,74.7,72.5,30.09,NE,45,0.0,6.7,93,0.00,,SKC,0.00,VWS V14.01,2013-08-29 14:39:00,
2013-08-29 10:00:00,75.0,71.9,30.09,SW,225,2.3,8.6,90,0.00,,SKC,0.00,VWS V14.01,2013-08-29 15:00:00,
2013-08-29 10:19:00,76.3,72.1,30.09,ESE,112,2.3,8.6,87,0.00,,SKC,0.00,VWS V14.01,2013-08-29 15:19:00,
2013-08-29 10:39:00,77.9,73.4,30.09,East,90,1.8,7.4,86,0.00,,SKC,0.00,VWS V14.01,2013-08-29 15:39:00,
2013-08-29 11:00:00,78.1,73.6,30.09,NNE,22,1.3,8.2,86,0.00,,SKC,0.00,VWS V14.01,2013-08-29 16:00:00,
2013-08-29 11:19:00,79.3,74.1,30.09,ENE,68,1.8,7.0,84,0.00,,SKC,0.00,VWS V14.01,2013-08-29 16:19:00,
2013-08-29 11:39:00,80.2,73.5,30.09,ENE,68,2.6,10.2,80,0.00,,SKC,0.00,VWS V14.01,2013-08-29 16:39:00,
2013-08-29 12:00:00,82.4,74.5,30.09,NNW,338,6.4,9.8,77,0.00,,SKC,0.00,VWS V14.01,2013-08-29 17:00:00,
2013-08-29 12:19:00,82.2,73.1,30.06,SSW,202,3.6,10.2,74,0.00,,SKC,0.00,VWS V14.01,2013-08-29 17:19:00,
2013-08-29 12:39:00,82.2,73.1,30.06,NE,45,1.5,14.9,74,0.00,,SKC,0.00,VWS V14.01,2013-08-29 17:39:00,
2013-08-29 13:00:00,83.8,73.4,30.06,SSW,202,4.1,11.4,71,0.00,,SKC,0.00,VWS V14.01,2013-08-29 18:00:00,
2013-08-29 13:19:00,83.1,72.8,30.06,SSW,202,3.3,12.9,71,0.00,,SKC,0.00,VWS V14.01,2013-08-29 18:19:00,
2013-08-29 13:39:00,83.8,73.4,30.06,SW,225,1.8,18.8,71,0.00,,SKC,0.00,VWS V14.01,2013-08-29 18:39:00,
2013-08-29 14:00:00,83.3,74.2,30.09,SSW,202,3.3,10.2,74,0.00,,SKC,0.00,VWS V14.01,2013-08-29 19:00:00,
2013-08-29 14:19:00,84.0,75.2,30.06,SW,225,4.4,7.0,75,0.00,,SKC,0.00,VWS V14.01,2013-08-29 19:19:00,
2013-08-29 14:39:00,84.0,74.8,30.06,NNW,338,3.1,10.2,74,0.00,,SKC,0.00,VWS V14.01,2013-08-29 19:39:00,
2013-08-29 15:00:00,81.0,71.5,30.06,NNE,22,1.3,11.0,73,0.00,,SKC,0.00,VWS V14.01,2013-08-29 20:00:00,
2013-08-29 15:19:00,75.4,66.5,30.06,NNE,22,3.1,8.2,74,0.00,,SKC,0.00,VWS V14.01,2013-08-29 20:19:00,
2013-08-29 15:39:00,73.2,65.6,30.06,NNW,338,5.4,10.2,77,0.00,,SKC,0.00,VWS V14.01,2013-08-29 20:39:00,
2013-08-29 16:00:00,72.3,65.4,30.03,NE,45,1.3,8.2,79,0.00,,SKC,0.00,VWS V14.01,2013-08-29 21:00:00,
2013-08-29 16:19:00,71.8,66.3,30.03,ESE,112,0.0,5.5,83,0.00,,SKC,0.00,VWS V14.01,2013-08-29 21:19:00,
2013-08-29 16:39:00,71.6,67.5,30.00,NNE,22,2.8,6.3,87,0.00,,SKC,0.00,VWS V14.01,2013-08-29 21:39:00,
2013-08-29 17:00:00,70.0,66.6,30.00,WNW,292,2.8,5.1,89,0.00,,SKC,0.00,VWS V14.01,2013-08-29 22:00:00,
2013-08-29 17:19:00,69.3,67.2,30.00,ENE,68,0.0,5.1,93,0.04,,SKC,0.04,VWS V14.01,2013-08-29 22:19:00,
2013-08-29 17:39:00,68.9,67.4,29.97,NE,45,6.4,9.8,95,0.08,,SKC,0.08,VWS V14.01,2013-08-29 22:39:00,
2013-08-29 17:59:00,68.9,67.7,29.97,West,270,0.0,9.8,96,0.08,,SKC,0.08,VWS V14.01,2013-08-29 22:59:00,
2013-08-29 18:19:00,68.9,68.0,29.97,ESE,112,0.0,7.0,97,0.08,,SKC,0.08,VWS V14.01,2013-08-29 23:19:00,
2013-08-29 18:39:00,68.9,68.3,29.97,ESE,112,0.0,4.7,98,0.16,,SKC,0.20,VWS V14.01,2013-08-29 23:39:00,
2013-08-29 18:59:00,69.6,69.0,29.94,SSW,202,6.9,14.9,98,0.42,,SKC,0.50,VWS V14.01,2013-08-29 23:59:00,
2013-08-29 19:19:00,69.6,69.0,29.94,SSE,158,1.3,13.7,98,0.42,,SKC,0.50,VWS V14.01,2013-08-30 00:19:00,
2013-08-29 19:39:00,70.2,69.6,29.91,SSE,158,1.0,12.1,98,0.42,,SKC,0.50,VWS V14.01,2013-08-30 00:39:00,
2013-08-29 20:00:00,70.2,69.6,29.94,SSW,202,2.8,7.4,98,0.30,,SKC,0.50,VWS V14.01,2013-08-30 01:00:00,
2013-08-29 20:19:00,70.3,69.8,29.91,East,90,1.3,9.4,98,0.00,,SKC,0.50,VWS V14.01,2013-08-30 01:19:00,
2013-08-29 20:39:00,70.0,69.4,29.94,NNW,338,2.3,4.7,98,0.00,,SKC,0.50,VWS V14.01,2013-08-30 01:39:00,
2013-08-29 21:00:00,69.8,69.2,29.94,SSE,158,0.0,3.5,98,0.00,,SKC,0.50,VWS V14.01,2013-08-30 02:00:00,
2013-08-29 21:19:00,69.4,68.8,29.94,SSE,158,0.0,0.0,98,0.00,,SKC,0.50,VWS V14.01,2013-08-30 02:19:00,
2013-08-29 21:39:00,69.3,68.7,29.94,ESE,112,0.0,1.6,98,0.00,,SKC,0.50,VWS V14.01,2013-08-30 02:39:00,
2013-08-29 22:00:00,69.6,69.0,29.91,SSE,158,3.3,11.0,98,0.00,,SKC,0.50,VWS V14.01,2013-08-30 03:00:00,
2013-08-29 22:19:00,70.2,69.6,29.91,ENE,68,0.0,7.4,98,0.00,,SKC,0.50,VWS V14.01,2013-08-30 03:19:00,
2013-08-29 22:39:00,70.7,70.1,29.94,NW,315,5.4,8.6,98,0.00,,SKC,0.50,VWS V14.01,2013-08-30 03:39:00,
2013-08-29 22:59:00,70.9,70.3,29.88,WNW,292,2.8,10.2,98,0.00,,SKC,0.50,VWS V14.01,2013-08-30 03:59:00,
2013-08-29 23:19:00,70.5,69.9,29.94,NNW,338,0.0,8.2,98,0.00,,SKC,0.50,VWS V14.01,2013-08-30 04:19:00,
2013-08-29 23:39:00,70.2,69.6,29.91,ENE,68,0.0,0.0,98,0.00,,SKC,0.50,VWS V14.01,2013-08-30 04:39:00,
2013-08-29 23:59:00,69.8,69.2,29.91,ENE,68,0.0,0.0,98,0.00,,SKC,0.00,VWS V14.01,2013-08-30 04:59:00,